Location: Ohmer (historical)
(38.0096°N, 122.0227°W)
Time: 02:46:15
(UTC+00:00)

H-2A R/B - Pass Details

Date: 14 February 2026
Orbit: 518 x 533 km, 98.2° (Epoch: 13 March)

Event Time Altitude Azimuth Distance (km) Brightness Sun altitude
Rises 13:23:22 0° 5° (N) 2,666 6.9 -19.4°
Reaches altitude 10° 13:25:32 10° 358° (N) 1,770 5.9 -19.0°
Enters shadow 13:28:44 41° 307° (NW) 774 3.6 -18.4°
